Location: Pf�ffikon
(47.2015°N, 8.7809°E)
Time: 07:55:26
(UTC+00:00)

Cosmos 1953 Rocket - Pass Details

Date: 07 June 2020
Orbit: 604 x 635 km, 82.5° (Epoch: 12 July)

Event Time Altitude Azimuth Distance (km) Brightness Sun altitude
Exits shadow 00:33:33 38° 178° (S) 957 4.0 -18.3°
Maximum altitude 00:35:13 80° 98° (E) 638 3.5 -18.2°
Drops below altitude 10° 00:39:38 10° 11° (NNE) 1,991 7.4 -18.0°
Sets 00:41:51 0° 11° (N) 2,896 8.7 -17.8°
